Weather History for KBTM - August, 2013

Change the Weather History Date:

Sunday, August 4, 2013

  Actual Average Record
Temperature  
Mean Temperature 62 °F 64 °F  
Max Temperature 80 °F 82 °F 96 °F (1961)
Min Temperature 44 °F 46 °F 33 °F (1996)
Degree Days  
Heating Degree Days 3 2  
Month to date heating degree days 16 8  
Since 1 June heating degree days 277 395  
Since 1 July heating degree days 34 108  
Cooling Degree Days 0 1  
Month to date cooling degree days 0 6  
Year to date cooling degree days 81 57  
Since 1 June cooling degree days 81 57  
Growing Degree Days 12 (Base 50)    
Moisture  
Dew Point 37 °F    
Average Humidity 50    
Maximum Humidity 83    
Minimum Humidity 16    
Precipitation  
Precipitation 0.00 in 0.04 in 0.65 in (1922)
Month to date precipitation 0.62 0.16  
Year to date precipitation 6.29 8.68  
Sea Level Pressure  
Sea Level Pressure 30.04 in    
Wind  
Wind Speed 5 mph (NNE)    
Max Wind Speed 16 mph    
Max Gust Speed 24 mph    
Visibility 10 miles    
Events      
T = Trace of Precipitation, MM = Missing Value Source: NWS Daily Summary

Daily Weather History Graph

Daily Weather History Graph

Search for Another Location

Airport or City:

Trip Planner

Search our weather history database for the weather conditions in past years. The results will help you decide how hot, cold, wet, or windy it might be!

Date:

Astronomy

Aug. 04, 2013 Rise Set
Actual Time 6:16 AM MDT 8:54 PM MDT
Civil Twilight 5:42 AM MDT 9:28 PM MDT
Nautical Twilight 4:59 AM MDT 10:11 PM MDT
Astronomical Twilight 4:09 AM MDT 11:00 PM MDT
Moon 4:19 AM MDT (8/4) 7:20 PM MDT (8/4)
Length of Visible Light 15h 46m
Length of Day
14h 38m
Waning Crescent, 4% of the Moon is Illuminated
Aug 4
Waning Crescent
Aug 6
New
Aug 14
First Quarter
Aug 20
Full
Aug 28
Last Quarter

Hourly Weather History & Observations

Time (MDT) Temp. Windchill Dew Point Humidity Pressure Visibility Wind Dir Wind Speed Gust Speed Precip Events Conditions
12:53 AM 54.0 °F - 42.1 °F 64% 30.06 in 10.0 mi ENE 3.5 mph - N/A   Clear
1:53 AM 50.0 °F - 42.1 °F 74% 30.07 in 10.0 mi ESE 3.5 mph - N/A   Clear
2:53 AM 48.9 °F - 41.0 °F 74% 30.07 in 10.0 mi Calm Calm - N/A   Clear
3:53 AM 48.0 °F - 41.0 °F 77% 30.08 in 10.0 mi South 4.6 mph - N/A   Clear
4:53 AM 45.0 °F 42.6 °F 39.9 °F 82% 30.09 in 10.0 mi ESE 4.6 mph - N/A   Clear
5:53 AM 45.0 °F - 39.9 °F 82% 30.09 in 10.0 mi Calm Calm - N/A   Clear
6:53 AM 44.1 °F 41.5 °F 39.9 °F 85% 30.09 in 10.0 mi SE 4.6 mph - N/A   Clear
7:53 AM 48.9 °F - 42.1 °F 77% 30.09 in 10.0 mi Calm Calm - N/A   Clear
8:53 AM 55.0 °F - 43.0 °F 64% 30.09 in 10.0 mi Calm Calm - N/A   Clear
9:53 AM 62.1 °F - 43.0 °F 50% 30.06 in 10.0 mi North 4.6 mph - N/A   Clear
10:53 AM 68.0 °F - 39.9 °F 36% 30.04 in 10.0 mi Calm Calm - N/A   Clear
11:53 AM 72.0 °F - 36.0 °F 27% 30.03 in 10.0 mi North 4.6 mph - N/A   Clear
12:53 PM 73.9 °F - 33.1 °F 22% 30.02 in 10.0 mi NNE 6.9 mph - N/A   Clear
1:53 PM 75.9 °F - 27.0 °F 16% 30.02 in 10.0 mi NW 9.2 mph - N/A   Clear
2:53 PM 77.0 °F - 30.0 °F 18% 30.01 in 10.0 mi North 5.8 mph - N/A   Clear
3:53 PM 79.0 °F - 30.0 °F 17% 29.99 in 10.0 mi WNW 8.1 mph - N/A   Clear
4:53 PM 80.1 °F - 32.0 °F 17% 29.99 in 10.0 mi WNW 11.5 mph - N/A   Clear
5:53 PM 78.1 °F - 28.9 °F 17% 29.98 in 10.0 mi NW 9.2 mph 18.4 mph N/A   Clear
6:53 PM 78.1 °F - 30.0 °F 17% 29.98 in 10.0 mi NNW 11.5 mph 16.1 mph N/A   Clear
7:53 PM 75.9 °F - 32.0 °F 20% 29.97 in 10.0 mi NW 11.5 mph - N/A   Clear
8:53 PM 72.0 °F - 35.1 °F 26% 29.98 in 10.0 mi North 3.5 mph - N/A   Clear
9:53 PM 62.1 °F - 39.0 °F 43% 30.01 in 10.0 mi ESE 5.8 mph - N/A   Clear
10:53 PM 57.9 °F - 37.0 °F 46% 30.03 in 10.0 mi East 4.6 mph - N/A   Clear
11:53 PM 54.0 °F - 37.9 °F 55% 30.04 in 10.0 mi ESE 4.6 mph - N/A   Clear